Time,TemperatureF,DewpointF,PressureIn,WindDirection,WindDirectionDegrees,WindSpeedMPH,WindSpeedGustMPH,Humidity,HourlyPrecipIn,Conditions,Clouds,dailyrainin,SoftwareType,DateUTC
2013-06-29 00:03:00,69.8,69.8,29.59,WNW,284,0.0,2.0,100,0.00,,,0.00,WUHU216DAVISWMX,2013-06-29 04:03:00,
2013-06-29 00:09:00,69.7,69.7,29.59,SSW,212,1.0,1.0,100,0.00,,,0.00,WUHU216DAVISWMX,2013-06-29 04:09:00,
2013-06-29 00:14:00,69.9,69.9,29.58,SSW,212,0.0,1.0,100,0.00,,,0.00,WUHU216DAVISWMX,2013-06-29 04:14:00,
2013-06-29 00:19:00,69.8,69.8,29.58,SSW,213,0.0,1.0,100,0.00,,,0.00,WUHU216DAVISWMX,2013-06-29 04:19:00,
2013-06-29 00:24:00,70.0,70.0,29.58,SSW,213,0.0,1.0,100,0.00,,,0.00,WUHU216DAVISWMX,2013-06-29 04:24:00,
2013-06-29 00:29:00,70.4,70.4,29.58,SSW,213,0.0,1.0,100,0.00,,,0.00,WUHU216DAVISWMX,2013-06-29 04:29:00,
2013-06-29 00:34:00,70.3,70.3,29.58,SSW,213,0.0,1.0,100,0.00,,,0.00,WUHU216DAVISWMX,2013-06-29 04:34:00,
2013-06-29 00:39:00,70.4,70.4,29.58,SSW,213,0.0,1.0,100,0.00,,,0.00,WUHU216DAVISWMX,2013-06-29 04:39:00,
2013-06-29 00:44:00,70.1,70.1,29.58,SSW,212,0.0,1.0,100,0.00,,,0.00,WUHU216DAVISWMX,2013-06-29 04:44:00,
2013-06-29 00:49:00,70.0,70.0,29.58,SSW,209,0.0,0.0,100,0.00,,,0.00,WUHU216DAVISWMX,2013-06-29 04:49:00,
2013-06-29 00:54:00,70.5,70.5,29.57,SSW,208,0.0,0.0,100,0.00,,,0.00,WUHU216DAVISWMX,2013-06-29 04:54:00,
2013-06-29 00:59:00,70.4,70.4,29.57,SSW,208,0.0,0.0,100,0.00,,,0.00,WUHU216DAVISWMX,2013-06-29 04:59:00,
2013-06-29 01:04:00,70.0,70.0,29.57,SSW,208,0.0,0.0,100,0.00,,,0.00,WUHU216DAVISWMX,2013-06-29 05:04:00,
2013-06-29 01:09:00,70.5,70.5,29.57,SSW,209,0.0,0.0,100,0.00,,,0.00,WUHU216DAVISWMX,2013-06-29 05:09:00,
2013-06-29 01:14:00,70.1,70.1,29.57,SSW,209,0.0,0.0,100,0.00,,,0.00,WUHU216DAVISWMX,2013-06-29 05:14:00,
2013-06-29 01:19:00,70.4,70.4,29.57,SSW,208,0.0,0.0,100,0.00,,,0.00,WUHU216DAVISWMX,2013-06-29 05:19:00,
2013-06-29 01:24:00,70.1,70.1,29.57,SSW,209,0.0,0.0,100,0.00,,,0.00,WUHU216DAVISWMX,2013-06-29 05:24:00,
2013-06-29 01:29:00,70.6,70.6,29.57,SSW,208,0.0,0.0,100,0.00,,,0.00,WUHU216DAVISWMX,2013-06-29 05:29:00,
2013-06-29 01:34:00,70.5,70.5,29.57,SSW,208,0.0,0.0,100,0.00,,,0.00,WUHU216DAVISWMX,2013-06-29 05:34:00,
2013-06-29 01:39:00,70.4,70.4,29.57,SSW,208,0.0,0.0,100,0.00,,,0.00,WUHU216DAVISWMX,2013-06-29 05:39:00,
2013-06-29 01:44:00,70.5,70.5,29.57,SSW,209,0.0,0.0,100,0.00,,,0.00,WUHU216DAVISWMX,2013-06-29 05:44:00,
2013-06-29 01:49:00,70.6,70.6,29.57,SSW,209,0.0,1.0,100,0.00,,,0.00,WUHU216DAVISWMX,2013-06-29 05:49:00,
2013-06-29 01:54:00,70.3,70.3,29.57,East,84,0.0,2.0,100,0.00,,,0.00,WUHU216DAVISWMX,2013-06-29 05:54:00,
2013-06-29 01:59:00,70.2,70.2,29.56,South,190,0.0,2.0,100,0.00,,,0.00,WUHU216DAVISWMX,2013-06-29 05:59:00,
2013-06-29 02:04:00,70.5,70.5,29.56,South,190,0.0,1.0,100,0.00,,,0.00,WUHU216DAVISWMX,2013-06-29 06:04:00,
2013-06-29 02:09:00,70.3,70.3,29.56,South,189,0.0,1.0,100,0.00,,,0.00,WUHU216DAVISWMX,2013-06-29 06:09:00,
2013-06-29 02:14:00,70.4,70.4,29.56,South,189,0.0,0.0,100,0.00,,,0.00,WUHU216DAVISWMX,2013-06-29 06:14:00,
2013-06-29 02:19:00,70.2,70.2,29.56,South,190,0.0,1.0,100,0.00,,,0.00,WUHU216DAVISWMX,2013-06-29 06:19:00,
2013-06-29 02:24:00,70.3,70.3,29.56,South,189,0.0,1.0,100,0.00,,,0.00,WUHU216DAVISWMX,2013-06-29 06:24:00,
2013-06-29 02:29:00,69.9,69.9,29.56,South,190,0.0,0.0,100,0.00,,,0.00,WUHU216DAVISWMX,2013-06-29 06:29:00,
2013-06-29 02:34:00,70.1,70.1,29.55,ESE,104,0.0,1.0,100,0.00,,,0.00,WUHU216DAVISWMX,2013-06-29 06:34:00,
2013-06-29 02:39:00,69.7,69.7,29.56,SSW,202,1.0,1.0,100,0.00,,,0.00,WUHU216DAVISWMX,2013-06-29 06:39:00,
2013-06-29 02:44:00,69.9,69.9,29.56,SW,220,0.0,1.0,100,0.00,,,0.00,WUHU216DAVISWMX,2013-06-29 06:44:00,
2013-06-29 02:49:00,69.8,69.8,29.56,SW,219,0.0,1.0,100,0.00,,,0.00,WUHU216DAVISWMX,2013-06-29 06:49:00,
2013-06-29 02:54:00,69.6,69.6,29.56,SW,219,0.0,0.0,100,0.00,,,0.00,WUHU216DAVISWMX,2013-06-29 06:54:00,
2013-06-29 02:59:00,69.5,69.5,29.56,SW,220,0.0,0.0,100,0.00,,,0.00,WUHU216DAVISWMX,2013-06-29 06:59:00,
2013-06-29 03:04:00,69.6,69.6,29.55,SW,220,0.0,0.0,100,0.00,,,0.00,WUHU216DAVISWMX,2013-06-29 07:04:00,
2013-06-29 03:09:00,69.4,69.4,29.56,SW,219,0.0,0.0,100,0.00,,,0.00,WUHU216DAVISWMX,2013-06-29 07:09:00,
2013-06-29 03:14:00,69.7,69.7,29.56,SW,220,0.0,0.0,100,0.00,,,0.00,WUHU216DAVISWMX,2013-06-29 07:14:00,
2013-06-29 03:19:00,69.6,69.6,29.56,SW,219,0.0,0.0,100,0.00,,,0.00,WUHU216DAVISWMX,2013-06-29 07:19:00,
2013-06-29 03:24:00,69.6,69.6,29.56,SW,219,0.0,0.0,100,0.00,,,0.00,WUHU216DAVISWMX,2013-06-29 07:24:00,
2013-06-29 03:29:00,69.6,69.6,29.56,SW,219,0.0,0.0,100,0.00,,,0.00,WUHU216DAVISWMX,2013-06-29 07:29:00,
2013-06-29 03:34:00,69.4,69.4,29.57,SW,220,0.0,0.0,100,0.00,,,0.00,WUHU216DAVISWMX,2013-06-29 07:34:00,
2013-06-29 03:39:00,69.3,69.3,29.56,SW,219,0.0,0.0,100,0.00,,,0.00,WUHU216DAVISWMX,2013-06-29 07:39:00,
2013-06-29 03:44:00,69.6,69.6,29.56,SW,219,0.0,0.0,100,0.00,,,0.00,WUHU216DAVISWMX,2013-06-29 07:44:00,
2013-06-29 03:49:00,69.5,69.5,29.57,SW,220,0.0,0.0,100,0.00,,,0.00,WUHU216DAVISWMX,2013-06-29 07:49:00,
2013-06-29 03:54:00,69.6,69.6,29.57,SW,220,0.0,0.0,100,0.00,,,0.00,WUHU216DAVISWMX,2013-06-29 07:54:00,
2013-06-29 03:59:00,69.6,69.6,29.57,SW,219,0.0,0.0,100,0.00,,,0.00,WUHU216DAVISWMX,2013-06-29 07:59:00,
2013-06-29 04:04:00,69.7,69.7,29.57,SW,220,0.0,0.0,100,0.00,,,0.00,WUHU216DAVISWMX,2013-06-29 08:04:00,
2013-06-29 04:09:00,69.7,69.7,29.57,SW,219,0.0,0.0,100,0.00,,,0.00,WUHU216DAVISWMX,2013-06-29 08:09:00,
2013-06-29 04:14:00,69.7,69.7,29.58,SW,220,0.0,0.0,100,0.00,,,0.00,WUHU216DAVISWMX,2013-06-29 08:14:00,
2013-06-29 04:19:00,69.3,69.3,29.57,SW,220,0.0,0.0,100,0.00,,,0.00,WUHU216DAVISWMX,2013-06-29 08:19:00,
2013-06-29 04:24:00,69.8,69.8,29.57,SW,219,0.0,0.0,100,0.00,,,0.00,WUHU216DAVISWMX,2013-06-29 08:24:00,
2013-06-29 04:29:00,69.8,69.8,29.57,SW,220,0.0,0.0,100,0.00,,,0.00,WUHU216DAVISWMX,2013-06-29 08:29:00,
2013-06-29 04:34:00,69.5,69.5,29.57,SW,220,0.0,0.0,100,0.00,,,0.00,WUHU216DAVISWMX,2013-06-29 08:34:00,
2013-06-29 04:39:00,69.8,69.8,29.57,SW,220,0.0,0.0,100,0.00,,,0.00,WUHU216DAVISWMX,2013-06-29 08:39:00,
2013-06-29 04:44:00,69.8,69.8,29.57,SW,220,0.0,0.0,100,0.00,,,0.00,WUHU216DAVISWMX,2013-06-29 08:44:00,
2013-06-29 04:49:00,69.7,69.7,29.57,SW,220,0.0,0.0,100,0.00,,,0.00,WUHU216DAVISWMX,2013-06-29 08:49:00,
2013-06-29 04:54:00,69.7,69.7,29.57,SW,219,0.0,0.0,100,0.00,,,0.00,WUHU216DAVISWMX,2013-06-29 08:54:00,
2013-06-29 04:59:00,69.7,69.7,29.58,SW,220,0.0,0.0,100,0.00,,,0.00,WUHU216DAVISWMX,2013-06-29 08:59:00,
2013-06-29 05:04:00,69.6,69.6,29.58,SW,219,0.0,0.0,100,0.00,,,0.00,WUHU216DAVISWMX,2013-06-29 09:04:00,
2013-06-29 05:09:00,69.5,69.5,29.58,SW,219,0.0,0.0,100,0.00,,,0.00,WUHU216DAVISWMX,2013-06-29 09:09:00,
2013-06-29 05:14:00,69.4,69.4,29.59,SW,219,0.0,0.0,100,0.00,,,0.00,WUHU216DAVISWMX,2013-06-29 09:14:00,
2013-06-29 05:19:00,68.9,68.9,29.59,SW,219,0.0,0.0,100,0.00,,,0.00,WUHU216DAVISWMX,2013-06-29 09:19:00,
2013-06-29 05:24:00,69.4,69.4,29.59,SW,219,0.0,0.0,100,0.00,,,0.00,WUHU216DAVISWMX,2013-06-29 09:24:00,
2013-06-29 05:29:00,69.3,69.3,29.59,SW,219,0.0,0.0,100,0.00,,,0.00,WUHU216DAVISWMX,2013-06-29 09:29:00,
2013-06-29 05:34:00,68.9,68.9,29.59,SW,219,0.0,0.0,100,0.00,,,0.00,WUHU216DAVISWMX,2013-06-29 09:34:00,
2013-06-29 05:39:00,68.8,68.8,29.59,SW,219,0.0,0.0,100,0.00,,,0.00,WUHU216DAVISWMX,2013-06-29 09:39:00,
2013-06-29 05:44:00,69.1,69.1,29.59,SW,219,0.0,0.0,100,0.00,,,0.00,WUHU216DAVISWMX,2013-06-29 09:44:00,
2013-06-29 05:49:00,69.1,69.1,29.59,SW,219,0.0,0.0,100,0.00,,,0.00,WUHU216DAVISWMX,2013-06-29 09:49:00,
2013-06-29 05:54:00,68.9,68.9,29.59,SW,219,0.0,0.0,100,0.00,,,0.00,WUHU216DAVISWMX,2013-06-29 09:54:00,
2013-06-29 05:59:00,69.1,69.1,29.59,SW,219,0.0,0.0,100,0.00,,,0.00,WUHU216DAVISWMX,2013-06-29 09:59:00,
2013-06-29 06:04:00,69.1,69.1,29.60,SW,219,0.0,0.0,100,0.00,,,0.00,WUHU216DAVISWMX,2013-06-29 10:04:00,
2013-06-29 06:09:00,68.9,68.9,29.60,SW,219,0.0,0.0,100,0.00,,,0.00,WUHU216DAVISWMX,2013-06-29 10:09:00,
2013-06-29 06:14:00,69.0,69.0,29.60,SW,220,0.0,0.0,100,0.00,,,0.00,WUHU216DAVISWMX,2013-06-29 10:14:00,
2013-06-29 06:19:00,69.0,69.0,29.60,SW,219,0.0,0.0,100,0.00,,,0.00,WUHU216DAVISWMX,2013-06-29 10:19:00,
2013-06-29 06:24:00,68.7,68.7,29.60,SW,219,0.0,0.0,100,0.00,,,0.00,WUHU216DAVISWMX,2013-06-29 10:24:00,
2013-06-29 06:29:00,69.3,69.3,29.60,SW,220,0.0,0.0,100,0.00,,,0.00,WUHU216DAVISWMX,2013-06-29 10:29:00,
2013-06-29 06:34:00,69.3,69.3,29.60,SW,219,0.0,0.0,100,0.00,,,0.00,WUHU216DAVISWMX,2013-06-29 10:34:00,
2013-06-29 06:39:00,69.5,69.5,29.60,SW,220,0.0,0.0,100,0.00,,,0.00,WUHU216DAVISWMX,2013-06-29 10:39:00,
2013-06-29 06:44:00,69.2,69.2,29.60,SW,219,0.0,0.0,100,0.00,,,0.00,WUHU216DAVISWMX,2013-06-29 10:44:00,
2013-06-29 06:49:00,69.5,69.5,29.60,SW,220,0.0,0.0,100,0.00,,,0.00,WUHU216DAVISWMX,2013-06-29 10:49:00,
2013-06-29 06:54:00,69.7,69.7,29.60,SW,220,0.0,0.0,100,0.00,,,0.00,WUHU216DAVISWMX,2013-06-29 10:54:00,
2013-06-29 06:59:00,70.2,70.2,29.60,SW,236,0.0,0.0,100,0.00,,,0.00,WUHU216DAVISWMX,2013-06-29 10:59:00,
2013-06-29 07:04:00,70.1,70.1,29.60,West,272,2.0,2.0,100,0.00,,,0.00,WUHU216DAVISWMX,2013-06-29 11:04:00,
2013-06-29 07:09:00,70.6,70.6,29.60,WSW,244,0.0,2.0,100,0.00,,,0.00,WUHU216DAVISWMX,2013-06-29 11:09:00,
2013-06-29 07:14:00,70.8,70.8,29.60,SW,235,0.0,2.0,100,0.00,,,0.00,WUHU216DAVISWMX,2013-06-29 11:14:00,
2013-06-29 07:19:00,70.8,70.8,29.60,SSW,213,0.0,3.0,100,0.00,,,0.00,WUHU216DAVISWMX,2013-06-29 11:19:00,
2013-06-29 07:24:00,71.4,71.4,29.60,SSW,212,0.0,3.0,100,0.00,,,0.00,WUHU216DAVISWMX,2013-06-29 11:24:00,
2013-06-29 07:29:00,71.5,71.5,29.60,West,259,0.0,3.0,100,0.00,,,0.00,WUHU216DAVISWMX,2013-06-29 11:29:00,
2013-06-29 07:34:00,71.6,71.6,29.60,West,259,0.0,3.0,100,0.00,,,0.00,WUHU216DAVISWMX,2013-06-29 11:34:00,
2013-06-29 07:39:00,71.4,71.4,29.60,WSW,258,1.0,2.0,100,0.00,,,0.00,WUHU216DAVISWMX,2013-06-29 11:39:00,
2013-06-29 07:44:00,71.9,71.9,29.61,West,259,0.0,2.0,100,0.00,,,0.00,WUHU216DAVISWMX,2013-06-29 11:44:00,
2013-06-29 07:49:00,71.7,71.7,29.61,West,259,0.0,1.0,100,0.00,,,0.00,WUHU216DAVISWMX,2013-06-29 11:49:00,
2013-06-29 07:54:00,72.3,72.3,29.60,West,259,0.0,1.0,100,0.00,,,0.00,WUHU216DAVISWMX,2013-06-29 11:54:00,
2013-06-29 07:59:00,72.1,72.1,29.60,South,176,0.0,4.0,100,0.00,,,0.00,WUHU216DAVISWMX,2013-06-29 11:59:00,
2013-06-29 08:04:00,72.5,72.5,29.61,SSW,211,0.0,4.0,100,0.00,,,0.00,WUHU216DAVISWMX,2013-06-29 12:04:00,
2013-06-29 08:09:00,72.2,72.2,29.62,SW,216,1.0,4.0,100,0.00,,,0.00,WUHU216DAVISWMX,2013-06-29 12:09:00,
2013-06-29 08:14:00,72.5,72.5,29.61,SW,216,0.0,2.0,100,0.00,,,0.00,WUHU216DAVISWMX,2013-06-29 12:14:00,
2013-06-29 08:19:00,72.9,72.9,29.61,WSW,247,1.0,4.0,100,0.00,,,0.00,WUHU216DAVISWMX,2013-06-29 12:19:00,
2013-06-29 08:33:00,73.8,73.8,29.62,SW,219,0.0,0.0,100,0.00,,,0.00,WUHU216DAVISWMX,2013-06-29 12:33:00,
2013-06-29 08:38:00,74.0,74.0,29.61,SW,229,2.0,4.0,100,0.00,,,0.00,WUHU216DAVISWMX,2013-06-29 12:38:00,
2013-06-29 08:43:00,74.0,73.7,29.61,NW,315,1.0,4.0,99,0.00,,,0.00,WUHU216DAVISWMX,2013-06-29 12:43:00,
2013-06-29 08:48:00,74.3,74.0,29.61,NW,315,0.0,2.0,99,0.00,,,0.00,WUHU216DAVISWMX,2013-06-29 12:48:00,
2013-06-29 08:53:00,74.3,74.0,29.61,NW,314,1.0,2.0,99,0.00,,,0.00,WUHU216DAVISWMX,2013-06-29 12:53:00,
2013-06-29 08:58:00,74.6,74.3,29.61,NW,313,0.0,2.0,99,0.00,,,0.00,WUHU216DAVISWMX,2013-06-29 12:58:00,
2013-06-29 09:03:00,74.3,73.7,29.61,NW,314,0.0,1.0,98,0.00,,,0.00,WUHU216DAVISWMX,2013-06-29 13:03:00,
2013-06-29 09:08:00,74.7,74.4,29.61,NW,308,1.0,1.0,99,0.00,,,0.00,WUHU216DAVISWMX,2013-06-29 13:08:00,
2013-06-29 09:13:00,74.6,74.0,29.61,NW,308,0.0,2.0,98,0.00,,,0.00,WUHU216DAVISWMX,2013-06-29 13:13:00,
2013-06-29 09:18:00,74.8,74.2,29.62,NW,308,1.0,2.0,98,0.00,,,0.00,WUHU216DAVISWMX,2013-06-29 13:18:00,
2013-06-29 09:23:00,74.9,74.3,29.62,NW,308,0.0,2.0,98,0.00,,,0.00,WUHU216DAVISWMX,2013-06-29 13:23:00,
2013-06-29 09:28:00,74.8,74.2,29.62,NW,308,0.0,2.0,98,0.00,,,0.00,WUHU216DAVISWMX,2013-06-29 13:28:00,
2013-06-29 09:33:00,75.0,74.4,29.62,WNW,300,0.0,1.0,98,0.00,,,0.00,WUHU216DAVISWMX,2013-06-29 13:33:00,
2013-06-29 09:39:00,75.0,74.1,29.62,West,265,0.0,4.0,97,0.00,,,0.00,WUHU216DAVISWMX,2013-06-29 13:39:00,
2013-06-29 09:44:00,74.9,74.0,29.62,WSW,244,0.0,4.0,97,0.00,,,0.00,WUHU216DAVISWMX,2013-06-29 13:44:00,
2013-06-29 09:49:00,75.0,74.4,29.62,WSW,243,0.0,2.0,98,0.00,,,0.00,WUHU216DAVISWMX,2013-06-29 13:49:00,
2013-06-29 09:54:00,74.5,73.6,29.62,WSW,243,0.0,2.0,97,0.00,,,0.00,WUHU216DAVISWMX,2013-06-29 13:54:00,
2013-06-29 09:59:00,74.5,74.2,29.62,WSW,243,0.0,2.0,99,0.00,,,0.00,WUHU216DAVISWMX,2013-06-29 13:59:00,
2013-06-29 10:04:00,74.8,74.5,29.62,WSW,243,0.0,0.0,99,0.00,,,0.00,WUHU216DAVISWMX,2013-06-29 14:04:00,
2013-06-29 10:09:00,74.3,74.3,29.62,WSW,243,0.0,0.0,100,0.00,,,0.00,WUHU216DAVISWMX,2013-06-29 14:09:00,
2013-06-29 10:14:00,74.4,74.4,29.63,WSW,243,0.0,1.0,100,0.00,,,0.00,WUHU216DAVISWMX,2013-06-29 14:14:00,
2013-06-29 10:19:00,74.5,74.2,29.63,WSW,252,0.0,1.0,99,0.00,,,0.00,WUHU216DAVISWMX,2013-06-29 14:19:00,
2013-06-29 10:24:00,74.4,74.1,29.63,NE,35,0.0,1.0,99,0.00,,,0.00,WUHU216DAVISWMX,2013-06-29 14:24:00,
2013-06-29 10:29:00,74.5,74.5,29.62,NE,35,0.0,1.0,100,0.00,,,0.00,WUHU216DAVISWMX,2013-06-29 14:29:00,
2013-06-29 10:34:00,74.1,74.1,29.63,NE,35,0.0,0.0,100,0.00,,,0.00,WUHU216DAVISWMX,2013-06-29 14:34:00,
2013-06-29 10:39:00,74.2,74.2,29.62,SW,216,0.0,3.0,100,0.00,,,0.00,WUHU216DAVISWMX,2013-06-29 14:39:00,
2013-06-29 10:44:00,74.3,74.3,29.62,SW,215,0.0,3.0,100,0.00,,,0.00,WUHU216DAVISWMX,2013-06-29 14:44:00,
2013-06-29 10:49:00,74.2,74.2,29.62,SW,216,0.0,2.0,100,0.01,,,0.01,WUHU216DAVISWMX,2013-06-29 14:49:00,
2013-06-29 10:54:00,74.3,74.3,29.63,SW,215,0.0,0.0,100,0.01,,,0.01,WUHU216DAVISWMX,2013-06-29 14:54:00,
2013-06-29 10:59:00,74.2,74.2,29.62,SW,216,0.0,0.0,100,0.01,,,0.01,WUHU216DAVISWMX,2013-06-29 14:59:00,
2013-06-29 11:04:00,74.0,74.0,29.62,SW,215,0.0,0.0,100,0.01,,,0.01,WUHU216DAVISWMX,2013-06-29 15:04:00,
2013-06-29 11:09:00,74.5,74.5,29.62,SW,216,0.0,0.0,100,0.01,,,0.01,WUHU216DAVISWMX,2013-06-29 15:09:00,
2013-06-29 11:14:00,74.6,74.6,29.62,SW,217,0.0,2.0,100,0.01,,,0.01,WUHU216DAVISWMX,2013-06-29 15:14:00,
2013-06-29 11:19:00,74.7,74.7,29.63,SW,217,0.0,2.0,100,0.01,,,0.01,WUHU216DAVISWMX,2013-06-29 15:19:00,
2013-06-29 11:24:00,75.0,75.0,29.63,SW,217,1.0,1.0,100,0.01,,,0.01,WUHU216DAVISWMX,2013-06-29 15:24:00,
2013-06-29 11:29:00,74.7,74.7,29.63,SW,224,0.0,4.0,100,0.01,,,0.01,WUHU216DAVISWMX,2013-06-29 15:29:00,
2013-06-29 11:34:00,74.8,74.5,29.63,SW,236,0.0,4.0,99,0.01,,,0.01,WUHU216DAVISWMX,2013-06-29 15:34:00,
2013-06-29 11:39:00,74.9,74.6,29.63,SSW,206,0.0,3.0,99,0.01,,,0.01,WUHU216DAVISWMX,2013-06-29 15:39:00,
2013-06-29 11:44:00,74.8,74.8,29.64,SW,229,2.0,4.0,100,0.01,,,0.01,WUHU216DAVISWMX,2013-06-29 15:44:00,
2013-06-29 11:49:00,74.9,74.9,29.63,SW,234,3.0,4.0,100,0.00,,,0.01,WUHU216DAVISWMX,2013-06-29 15:49:00,
2013-06-29 11:54:00,75.0,74.4,29.64,SW,218,1.0,4.0,98,0.00,,,0.01,WUHU216DAVISWMX,2013-06-29 15:54:00,
2013-06-29 11:59:00,75.4,75.1,29.63,SSW,211,0.0,2.0,99,0.00,,,0.01,WUHU216DAVISWMX,2013-06-29 15:59:00,
2013-06-29 12:04:00,75.5,74.9,29.63,SW,226,1.0,4.0,98,0.00,,,0.01,WUHU216DAVISWMX,2013-06-29 16:04:00,
2013-06-29 12:09:00,75.6,75.0,29.63,SW,225,0.0,4.0,98,0.00,,,0.01,WUHU216DAVISWMX,2013-06-29 16:09:00,
2013-06-29 12:14:00,76.3,76.0,29.63,WSW,250,0.0,5.0,99,0.00,,,0.01,WUHU216DAVISWMX,2013-06-29 16:14:00,
2013-06-29 12:19:00,76.8,76.2,29.63,WSW,254,3.0,5.0,98,0.00,,,0.01,WUHU216DAVISWMX,2013-06-29 16:19:00,
2013-06-29 12:24:00,77.6,76.0,29.63,ESE,104,1.0,4.0,95,0.00,,,0.01,WUHU216DAVISWMX,2013-06-29 16:24:00,
2013-06-29 12:29:00,77.6,75.7,29.63,WSW,244,3.0,4.0,94,0.00,,,0.01,WUHU216DAVISWMX,2013-06-29 16:29:00,
2013-06-29 12:34:00,77.6,75.7,29.63,SSW,198,3.0,4.0,94,0.00,,,0.01,WUHU216DAVISWMX,2013-06-29 16:34:00,
2013-06-29 12:39:00,78.2,76.0,29.63,WSW,246,2.0,4.0,93,0.00,,,0.01,WUHU216DAVISWMX,2013-06-29 16:39:00,
2013-06-29 12:44:00,78.5,75.3,29.63,SW,223,2.0,4.0,90,0.00,,,0.01,WUHU216DAVISWMX,2013-06-29 16:44:00,
2013-06-29 12:49:00,78.7,75.5,29.63,WSW,252,0.0,5.0,90,0.00,,,0.01,WUHU216DAVISWMX,2013-06-29 16:49:00,
2013-06-29 12:54:00,78.8,75.6,29.63,South,181,2.0,5.0,90,0.00,,,0.01,WUHU216DAVISWMX,2013-06-29 16:54:00,
2013-06-29 12:59:00,79.2,76.0,29.63,WSW,243,5.0,5.0,90,0.00,,,0.01,WUHU216DAVISWMX,2013-06-29 16:59:00,
2013-06-29 13:04:00,79.0,74.8,29.63,SSW,205,1.0,7.0,87,0.00,,,0.01,WUHU216DAVISWMX,2013-06-29 17:04:00,
2013-06-29 13:09:00,79.0,75.5,29.63,WSW,245,1.0,7.0,89,0.00,,,0.01,WUHU216DAVISWMX,2013-06-29 17:09:00,
2013-06-29 13:14:00,79.5,75.3,29.63,West,268,4.0,11.0,87,0.00,,,0.01,WUHU216DAVISWMX,2013-06-29 17:14:00,
2013-06-29 13:19:00,79.7,74.8,29.63,West,266,2.0,11.0,85,0.00,,,0.01,WUHU216DAVISWMX,2013-06-29 17:19:00,
2013-06-29 13:24:00,80.1,74.9,29.63,South,187,2.0,9.0,84,0.00,,,0.01,WUHU216DAVISWMX,2013-06-29 17:24:00,
2013-06-29 13:29:00,80.4,74.8,29.63,West,260,7.0,9.0,83,0.00,,,0.01,WUHU216DAVISWMX,2013-06-29 17:29:00,
2013-06-29 13:34:00,80.7,75.8,29.62,West,273,0.0,9.0,85,0.00,,,0.01,WUHU216DAVISWMX,2013-06-29 17:34:00,
2013-06-29 13:39:00,81.0,75.8,29.63,SSW,198,2.0,11.0,84,0.00,,,0.01,WUHU216DAVISWMX,2013-06-29 17:39:00,
2013-06-29 13:44:00,81.1,75.5,29.62,SW,230,2.0,11.0,83,0.00,,,0.01,WUHU216DAVISWMX,2013-06-29 17:44:00,
2013-06-29 13:49:00,81.3,76.1,29.63,WSW,249,1.0,4.0,84,0.00,,,0.01,WUHU216DAVISWMX,2013-06-29 17:49:00,
2013-06-29 13:54:00,81.3,75.7,29.62,SSW,204,2.0,8.0,83,0.00,,,0.01,WUHU216DAVISWMX,2013-06-29 17:54:00,
2013-06-29 13:59:00,81.5,75.2,29.62,SW,236,5.0,8.0,81,0.00,,,0.01,WUHU216DAVISWMX,2013-06-29 17:59:00,
2013-06-29 14:04:00,81.2,75.6,29.63,WSW,243,1.0,7.0,83,0.00,,,0.01,WUHU216DAVISWMX,2013-06-29 18:04:00,
2013-06-29 14:09:00,80.7,74.8,29.63,SW,214,1.0,6.0,82,0.00,,,0.01,WUHU216DAVISWMX,2013-06-29 18:09:00,
2013-06-29 14:14:00,80.9,76.0,29.63,SSW,202,2.0,5.0,85,0.00,,,0.01,WUHU216DAVISWMX,2013-06-29 18:14:00,
2013-06-29 14:19:00,80.8,74.9,29.62,SW,219,2.0,5.0,82,0.00,,,0.01,WUHU216DAVISWMX,2013-06-29 18:19:00,
2013-06-29 14:24:00,81.0,75.8,29.63,West,269,1.0,5.0,84,0.00,,,0.01,WUHU216DAVISWMX,2013-06-29 18:24:00,
2013-06-29 14:29:00,81.4,75.8,29.62,North,354,0.0,6.0,83,0.00,,,0.01,WUHU216DAVISWMX,2013-06-29 18:29:00,
2013-06-29 14:34:00,81.6,75.7,29.62,South,183,1.0,8.0,82,0.00,,,0.01,WUHU216DAVISWMX,2013-06-29 18:34:00,
2013-06-29 14:39:00,81.6,76.0,29.62,SSW,205,0.0,8.0,83,0.00,,,0.01,WUHU216DAVISWMX,2013-06-29 18:39:00,
2013-06-29 14:44:00,81.4,75.8,29.62,SSW,213,3.0,4.0,83,0.00,,,0.01,WUHU216DAVISWMX,2013-06-29 18:44:00,
2013-06-29 14:49:00,81.7,75.4,29.62,South,176,1.0,4.0,81,0.00,,,0.01,WUHU216DAVISWMX,2013-06-29 18:49:00,
2013-06-29 14:54:00,82.1,76.2,29.62,SSE,162,1.0,4.0,82,0.00,,,0.01,WUHU216DAVISWMX,2013-06-29 18:54:00,
2013-06-29 14:59:00,81.9,75.6,29.62,SW,232,1.0,4.0,81,0.00,,,0.01,WUHU216DAVISWMX,2013-06-29 18:59:00,
2013-06-29 15:04:00,82.1,75.4,29.62,ESE,120,1.0,5.0,80,0.00,,,0.01,WUHU216DAVISWMX,2013-06-29 19:04:00,
2013-06-29 15:09:00,82.4,75.4,29.62,SW,229,5.0,7.0,79,0.00,,,0.01,WUHU216DAVISWMX,2013-06-29 19:09:00,
2013-06-29 15:14:00,82.2,75.9,29.62,SW,224,1.0,7.0,81,0.00,,,0.01,WUHU216DAVISWMX,2013-06-29 19:14:00,
2013-06-29 15:19:00,82.0,75.7,29.63,SSW,213,5.0,6.0,81,0.00,,,0.01,WUHU216DAVISWMX,2013-06-29 19:19:00,
2013-06-29 15:24:00,82.0,75.7,29.62,SW,233,0.0,7.0,81,0.00,,,0.01,WUHU216DAVISWMX,2013-06-29 19:24:00,
2013-06-29 15:29:00,81.9,75.2,29.62,North,0,0.0,7.0,80,0.00,,,0.01,WUHU216DAVISWMX,2013-06-29 19:29:00,
2013-06-29 15:34:00,82.2,75.2,29.62,WNW,291,2.0,6.0,79,0.00,,,0.01,WUHU216DAVISWMX,2013-06-29 19:34:00,
2013-06-29 15:39:00,82.3,76.0,29.62,SE,143,2.0,5.0,81,0.00,,,0.01,WUHU216DAVISWMX,2013-06-29 19:39:00,
2013-06-29 15:44:00,82.1,74.3,29.62,South,179,5.0,8.0,77,0.00,,,0.01,WUHU216DAVISWMX,2013-06-29 19:44:00,
2013-06-29 15:49:00,82.2,75.5,29.62,NW,311,0.0,8.0,80,0.00,,,0.01,WUHU216DAVISWMX,2013-06-29 19:49:00,
2013-06-29 15:54:00,81.8,74.0,29.62,South,186,1.0,6.0,77,0.00,,,0.01,WUHU216DAVISWMX,2013-06-29 19:54:00,
2013-06-29 15:59:00,81.8,74.0,29.62,SW,214,1.0,8.0,77,0.00,,,0.01,WUHU216DAVISWMX,2013-06-29 19:59:00,
2013-06-29 16:04:00,81.5,73.8,29.62,West,278,2.0,9.0,77,0.00,,,0.01,WUHU216DAVISWMX,2013-06-29 20:04:00,
2013-06-29 16:09:00,81.6,73.8,29.62,South,184,1.0,9.0,77,0.00,,,0.01,WUHU216DAVISWMX,2013-06-29 20:09:00,
2013-06-29 16:15:00,81.5,73.8,29.62,SSE,157,0.0,7.0,77,0.00,,,0.01,WUHU216DAVISWMX,2013-06-29 20:15:00,
2013-06-29 16:20:00,81.5,73.4,29.63,SSW,204,4.0,12.0,76,0.00,,,0.01,WUHU216DAVISWMX,2013-06-29 20:20:00,
2013-06-29 16:25:00,81.4,73.3,29.63,WSW,248,2.0,12.0,76,0.00,,,0.01,WUHU216DAVISWMX,2013-06-29 20:25:00,
2013-06-29 16:35:00,81.4,74.0,29.63,SW,215,0.0,7.0,78,0.00,,,0.01,WUHU216DAVISWMX,2013-06-29 20:35:00,
2013-06-29 16:40:00,81.4,73.7,29.63,West,271,1.0,4.0,77,0.00,,,0.01,WUHU216DAVISWMX,2013-06-29 20:40:00,
2013-06-29 16:45:00,81.5,74.1,29.64,WSW,243,1.0,7.0,78,0.00,,,0.01,WUHU216DAVISWMX,2013-06-29 20:45:00,
2013-06-29 16:50:00,81.7,74.3,29.64,SW,219,1.0,7.0,78,0.00,,,0.01,WUHU216DAVISWMX,2013-06-29 20:50:00,
2013-06-29 16:55:00,81.5,74.1,29.64,West,269,2.0,6.0,78,0.00,,,0.01,WUHU216DAVISWMX,2013-06-29 20:55:00,
2013-06-29 17:00:00,81.5,73.8,29.64,WSW,237,0.0,7.0,77,0.00,,,0.01,WUHU216DAVISWMX,2013-06-29 21:00:00,
2013-06-29 17:05:00,81.6,74.2,29.64,SSW,201,2.0,7.0,78,0.00,,,0.01,WUHU216DAVISWMX,2013-06-29 21:05:00,
2013-06-29 17:10:00,81.6,74.2,29.64,SW,214,2.0,6.0,78,0.00,,,0.01,WUHU216DAVISWMX,2013-06-29 21:10:00,
2013-06-29 17:15:00,81.5,74.1,29.64,ESE,115,1.0,6.0,78,0.00,,,0.01,WUHU216DAVISWMX,2013-06-29 21:15:00,
2013-06-29 17:20:00,81.3,73.6,29.64,WSW,255,0.0,6.0,77,0.00,,,0.01,WUHU216DAVISWMX,2013-06-29 21:20:00,
2013-06-29 17:25:00,81.2,73.5,29.64,WSW,250,3.0,7.0,77,0.00,,,0.01,WUHU216DAVISWMX,2013-06-29 21:25:00,
2013-06-29 17:30:00,81.2,73.5,29.64,South,179,1.0,7.0,77,0.00,,,0.01,WUHU216DAVISWMX,2013-06-29 21:30:00,
2013-06-29 17:35:00,81.3,73.9,29.64,SSW,206,1.0,7.0,78,0.00,,,0.01,WUHU216DAVISWMX,2013-06-29 21:35:00,
2013-06-29 17:40:00,81.1,74.5,29.64,NNW,330,1.0,6.0,80,0.00,,,0.01,WUHU216DAVISWMX,2013-06-29 21:40:00,
2013-06-29 17:45:00,81.2,74.6,29.64,West,264,2.0,5.0,80,0.00,,,0.01,WUHU216DAVISWMX,2013-06-29 21:45:00,
2013-06-29 18:05:00,81.0,74.0,29.64,West,279,2.0,6.0,79,0.00,,,0.01,WUHU216DAVISWMX,2013-06-29 22:05:00,
2013-06-29 18:10:00,80.5,73.5,29.65,SSW,199,2.0,9.0,79,0.00,,,0.01,WUHU216DAVISWMX,2013-06-29 22:10:00,
2013-06-29 18:15:00,80.3,73.7,29.65,WSW,249,2.0,6.0,80,0.00,,,0.01,WUHU216DAVISWMX,2013-06-29 22:15:00,
2013-06-29 18:20:00,80.0,73.4,29.65,NW,304,3.0,7.0,80,0.00,,,0.01,WUHU216DAVISWMX,2013-06-29 22:20:00,
2013-06-29 18:25:00,79.9,73.3,29.65,WSW,245,2.0,7.0,80,0.00,,,0.01,WUHU216DAVISWMX,2013-06-29 22:25:00,
2013-06-29 18:30:00,79.9,73.6,29.65,WSW,242,3.0,6.0,81,0.00,,,0.01,WUHU216DAVISWMX,2013-06-29 22:30:00,
2013-06-29 18:35:00,79.6,73.4,29.65,ENE,59,2.0,4.0,81,0.00,,,0.01,WUHU216DAVISWMX,2013-06-29 22:35:00,
2013-06-29 18:40:00,79.6,73.4,29.65,SSW,207,1.0,6.0,81,0.00,,,0.01,WUHU216DAVISWMX,2013-06-29 22:40:00,
2013-06-29 18:45:00,79.5,73.3,29.66,SW,230,1.0,6.0,81,0.00,,,0.01,WUHU216DAVISWMX,2013-06-29 22:45:00,
2013-06-29 18:50:00,79.4,73.5,29.66,SW,231,5.0,7.0,82,0.00,,,0.01,WUHU216DAVISWMX,2013-06-29 22:50:00,
2013-06-29 18:55:00,79.2,73.7,29.66,SSW,203,1.0,7.0,83,0.00,,,0.01,WUHU216DAVISWMX,2013-06-29 22:55:00,
2013-06-29 19:00:00,78.9,73.4,29.66,SW,229,1.0,3.0,83,0.00,,,0.01,WUHU216DAVISWMX,2013-06-29 23:00:00,
2013-06-29 19:05:00,78.8,73.6,29.66,WSW,241,3.0,4.0,84,0.00,,,0.01,WUHU216DAVISWMX,2013-06-29 23:05:00,
2013-06-29 19:10:00,78.6,73.4,29.67,South,173,1.0,6.0,84,0.00,,,0.01,WUHU216DAVISWMX,2013-06-29 23:10:00,
2013-06-29 19:15:00,78.6,73.4,29.67,West,260,3.0,6.0,84,0.00,,,0.01,WUHU216DAVISWMX,2013-06-29 23:15:00,
2013-06-29 19:20:00,78.4,73.6,29.67,SSE,160,1.0,6.0,85,0.00,,,0.01,WUHU216DAVISWMX,2013-06-29 23:20:00,
2013-06-29 19:26:00,78.2,73.0,29.67,West,274,0.0,5.0,84,0.00,,,0.01,WUHU216DAVISWMX,2013-06-29 23:26:00,
2013-06-29 19:31:00,78.1,73.3,29.68,SW,225,0.0,6.0,85,0.00,,,0.01,WUHU216DAVISWMX,2013-06-29 23:31:00,
2013-06-29 19:36:00,77.8,73.0,29.68,SSW,200,0.0,6.0,85,0.00,,,0.01,WUHU216DAVISWMX,2013-06-29 23:36:00,
2013-06-29 19:41:00,77.6,73.1,29.68,South,182,0.0,4.0,86,0.00,,,0.01,WUHU216DAVISWMX,2013-06-29 23:41:00,
2013-06-29 19:46:00,77.6,73.4,29.68,ENE,67,1.0,4.0,87,0.00,,,0.01,WUHU216DAVISWMX,2013-06-29 23:46:00,
2013-06-29 19:51:00,77.4,73.2,29.68,SSE,166,0.0,4.0,87,0.00,,,0.01,WUHU216DAVISWMX,2013-06-29 23:51:00,
2013-06-29 19:56:00,77.1,73.0,29.68,WSW,251,0.0,4.0,87,0.00,,,0.01,WUHU216DAVISWMX,2013-06-29 23:56:00,
2013-06-29 20:01:00,77.1,73.0,29.68,WSW,252,0.0,4.0,87,0.00,,,0.01,WUHU216DAVISWMX,2013-06-30 00:01:00,
2013-06-29 20:06:00,76.7,72.6,29.69,SW,231,1.0,8.0,87,0.00,,,0.01,WUHU216DAVISWMX,2013-06-30 00:06:00,
2013-06-29 20:11:00,76.6,72.5,29.69,SW,216,0.0,8.0,87,0.00,,,0.01,WUHU216DAVISWMX,2013-06-30 00:11:00,
2013-06-29 20:16:00,76.4,72.3,29.69,SW,222,0.0,8.0,87,0.00,,,0.01,WUHU216DAVISWMX,2013-06-30 00:16:00,
2013-06-29 20:21:00,76.3,72.2,29.69,SW,234,0.0,7.0,87,0.00,,,0.01,WUHU216DAVISWMX,2013-06-30 00:21:00,
2013-06-29 20:26:00,76.2,72.1,29.69,SW,219,3.0,6.0,87,0.00,,,0.01,WUHU216DAVISWMX,2013-06-30 00:26:00,
2013-06-29 20:31:00,76.0,71.9,29.69,WSW,237,0.0,6.0,87,0.00,,,0.01,WUHU216DAVISWMX,2013-06-30 00:31:00,
2013-06-29 20:36:00,75.9,71.8,29.69,SW,227,0.0,3.0,87,0.00,,,0.01,WUHU216DAVISWMX,2013-06-30 00:36:00,
2013-06-29 20:41:00,75.6,71.8,29.70,SW,227,0.0,2.0,88,0.00,,,0.01,WUHU216DAVISWMX,2013-06-30 00:41:00,
2013-06-29 20:46:00,75.6,71.8,29.70,SW,227,0.0,2.0,88,0.00,,,0.01,WUHU216DAVISWMX,2013-06-30 00:46:00,
2013-06-29 20:51:00,75.3,71.5,29.70,SW,227,0.0,1.0,88,0.00,,,0.01,WUHU216DAVISWMX,2013-06-30 00:51:00,
2013-06-29 20:56:00,75.1,71.6,29.70,SW,227,0.0,0.0,89,0.00,,,0.01,WUHU216DAVISWMX,2013-06-30 00:56:00,
2013-06-29 21:01:00,75.0,71.5,29.71,SW,227,0.0,0.0,89,0.00,,,0.01,WUHU216DAVISWMX,2013-06-30 01:01:00,
2013-06-29 21:06:00,74.8,71.7,29.71,SW,227,0.0,0.0,90,0.00,,,0.01,WUHU216DAVISWMX,2013-06-30 01:06:00,
2013-06-29 21:11:00,74.7,71.6,29.71,SW,227,0.0,0.0,90,0.00,,,0.01,WUHU216DAVISWMX,2013-06-30 01:11:00,
2013-06-29 21:16:00,74.6,71.5,29.72,SW,227,0.0,1.0,90,0.00,,,0.01,WUHU216DAVISWMX,2013-06-30 01:16:00,
2013-06-29 21:21:00,74.3,71.5,29.72,SW,227,0.0,1.0,91,0.00,,,0.01,WUHU216DAVISWMX,2013-06-30 01:21:00,
2013-06-29 21:26:00,74.3,71.5,29.72,SW,227,0.0,0.0,91,0.00,,,0.01,WUHU216DAVISWMX,2013-06-30 01:26:00,
2013-06-29 21:31:00,74.1,71.6,29.72,SW,227,0.0,0.0,92,0.00,,,0.01,WUHU216DAVISWMX,2013-06-30 01:31:00,
2013-06-29 21:36:00,73.9,71.4,29.72,SW,227,0.0,0.0,92,0.00,,,0.01,WUHU216DAVISWMX,2013-06-30 01:36:00,
2013-06-29 21:41:00,73.8,71.3,29.73,SW,227,0.0,0.0,92,0.00,,,0.01,WUHU216DAVISWMX,2013-06-30 01:41:00,
2013-06-29 21:46:00,73.7,71.2,29.73,SW,227,0.0,0.0,92,0.00,,,0.01,WUHU216DAVISWMX,2013-06-30 01:46:00,
2013-06-29 21:51:00,73.4,70.9,29.73,SW,227,0.0,0.0,92,0.00,,,0.01,WUHU216DAVISWMX,2013-06-30 01:51:00,
2013-06-29 21:56:00,73.2,71.0,29.73,SW,227,0.0,0.0,93,0.00,,,0.01,WUHU216DAVISWMX,2013-06-30 01:56:00,
2013-06-29 22:01:00,73.2,71.0,29.73,SW,227,0.0,0.0,93,0.00,,,0.01,WUHU216DAVISWMX,2013-06-30 02:01:00,
2013-06-29 22:06:00,72.9,70.7,29.73,SW,227,0.0,0.0,93,0.00,,,0.01,WUHU216DAVISWMX,2013-06-30 02:06:00,
2013-06-29 22:11:00,72.6,70.7,29.73,SW,227,0.0,0.0,94,0.00,,,0.01,WUHU216DAVISWMX,2013-06-30 02:11:00,
2013-06-29 22:16:00,72.5,70.6,29.74,SW,227,0.0,0.0,94,0.00,,,0.01,WUHU216DAVISWMX,2013-06-30 02:16:00,
2013-06-29 22:21:00,72.5,71.0,29.74,SW,227,0.0,0.0,95,0.00,,,0.01,WUHU216DAVISWMX,2013-06-30 02:21:00,
2013-06-29 22:26:00,72.4,70.9,29.74,SW,227,0.0,0.0,95,0.00,,,0.01,WUHU216DAVISWMX,2013-06-30 02:26:00,
2013-06-29 22:31:00,72.3,70.4,29.74,SW,227,0.0,0.0,94,0.00,,,0.01,WUHU216DAVISWMX,2013-06-30 02:31:00,
2013-06-29 22:36:00,72.2,70.7,29.74,SW,227,0.0,0.0,95,0.00,,,0.01,WUHU216DAVISWMX,2013-06-30 02:36:00,
2013-06-29 22:41:00,71.8,70.3,29.74,SW,227,0.0,0.0,95,0.00,,,0.01,WUHU216DAVISWMX,2013-06-30 02:41:00,
2013-06-29 22:46:00,71.7,70.5,29.74,SW,227,0.0,0.0,96,0.00,,,0.01,WUHU216DAVISWMX,2013-06-30 02:46:00,
2013-06-29 22:51:00,71.6,70.4,29.75,SW,227,0.0,0.0,96,0.00,,,0.01,WUHU216DAVISWMX,2013-06-30 02:51:00,
2013-06-29 22:56:00,71.5,70.6,29.74,SW,227,0.0,0.0,97,0.00,,,0.01,WUHU216DAVISWMX,2013-06-30 02:56:00,
2013-06-29 23:01:00,71.4,70.2,29.74,SW,227,0.0,0.0,96,0.00,,,0.01,WUHU216DAVISWMX,2013-06-30 03:01:00,
2013-06-29 23:06:00,71.1,69.9,29.74,SW,227,0.0,0.0,96,0.00,,,0.01,WUHU216DAVISWMX,2013-06-30 03:06:00,
2013-06-29 23:11:00,71.2,70.3,29.74,SW,227,0.0,0.0,97,0.00,,,0.01,WUHU216DAVISWMX,2013-06-30 03:11:00,
2013-06-29 23:16:00,71.1,70.2,29.75,SW,227,0.0,0.0,97,0.00,,,0.01,WUHU216DAVISWMX,2013-06-30 03:16:00,
2013-06-29 23:21:00,71.2,70.3,29.75,SW,227,0.0,0.0,97,0.00,,,0.01,WUHU216DAVISWMX,2013-06-30 03:21:00,
2013-06-29 23:26:00,70.7,69.8,29.75,SW,227,0.0,0.0,97,0.00,,,0.01,WUHU216DAVISWMX,2013-06-30 03:26:00,
2013-06-29 23:31:00,70.7,69.8,29.75,SW,227,0.0,0.0,97,0.00,,,0.01,WUHU216DAVISWMX,2013-06-30 03:31:00,
2013-06-29 23:36:00,70.9,70.0,29.75,SW,227,0.0,0.0,97,0.00,,,0.01,WUHU216DAVISWMX,2013-06-30 03:36:00,
2013-06-29 23:41:00,70.8,70.2,29.76,SW,227,0.0,0.0,98,0.00,,,0.01,WUHU216DAVISWMX,2013-06-30 03:41:00,
2013-06-29 23:46:00,70.6,70.0,29.76,SW,227,0.0,0.0,98,0.00,,,0.01,WUHU216DAVISWMX,2013-06-30 03:46:00,
2013-06-29 23:51:00,70.8,70.2,29.76,SW,224,0.0,1.0,98,0.00,,,0.01,WUHU216DAVISWMX,2013-06-30 03:51:00,
2013-06-29 23:56:00,70.8,70.2,29.76,SW,224,0.0,1.0,98,0.00,,,0.01,WUHU216DAVISWMX,2013-06-30 03:56:00,